This is the latest recevied weather packets stored in our database for station/object KC3ULW-13. If no packets are shown the sender has not sent any weather packets the latest 10 day(s).
| Time | Temp. | Humidity | Pressure | Rain* | Wind** | Luminosity | Snow |
|---|---|---|---|---|---|---|---|
| 1777913238 | 20.56° C | 45% | 1012 hPa | 0 mm | - | 765 W/m² | - |
| 1777912935 | 20.56° C | 47% | 1012.2 hPa | 0 mm | - | 726 W/m² | - |
| 1777912631 | 20.56° C | 46% | 1012.2 hPa | 0 mm | - | 675 W/m² | - |
| 1777912327 | 20.56° C | 45% | 1012.4 hPa | 0 mm | - | 602 W/m² | - |
| 1777912023 | 20.56° C | 47% | 1012.5 hPa | 0 mm | - | 302 W/m² | - |
| 1777911719 | 20° C | 45% | 1012.4 hPa | 0 mm | - | 668 W/m² | - |
| 1777911415 | 19.44° C | 47% | 1012.5 hPa | 0 mm | - | 621 W/m² | - |
| 1777911113 | 20° C | 46% | 1012.4 hPa | 0 mm | - | 565 W/m² | - |
| 1777910811 | 19.44° C | 46% | 1012.3 hPa | 0 mm | - | 634 W/m² | - |
| 1777910507 | 19.44° C | 46% | 1012.6 hPa | 0 mm | - | 629 W/m² | - |
| 1777910204 | 20° C | 45% | 1012.6 hPa | 0 mm | - | 621 W/m² | - |
| 1777909901 | 19.44° C | 47% | 1012.5 hPa | 0 mm | - | 663 W/m² | - |
| 1777909598 | 19.44° C | 47% | 1012.8 hPa | 0 mm | - | 677 W/m² | - |
| 1777909295 | 18.89° C | 48% | 1013 hPa | 0 mm | - | 677 W/m² | - |
| 1777908993 | 18.89° C | 48% | 1013 hPa | 0 mm | - | 681 W/m² | - |
| 1777908691 | 18.89° C | 48% | 1013.1 hPa | 0 mm | - | 598 W/m² | - |
| 1777908387 | 18.33° C | 47% | 1013.1 hPa | 0 mm | - | 691 W/m² | - |
| 1777908084 | 18.33° C | 48% | 1013.2 hPa | 0 mm | - | 450 W/m² | - |
| 1777907780 | 18.33° C | 47% | 1013.3 hPa | 0 mm | - | 731 W/m² | - |
| 1777907475 | 18.33° C | 48% | 1013.2 hPa | 0 mm | - | 742 W/m² | - |
| 1777907172 | 17.78° C | 49% | 1013.2 hPa | 0 mm | - | 431 W/m² | - |
| 1777906869 | 18.33° C | 47% | 1013.5 hPa | 0 mm | - | 480 W/m² | - |
| 1777906567 | 18.33° C | 47% | 1013.2 hPa | 0 mm | - | 735 W/m² | - |
| 1777906261 | 18.89° C | 47% | 1013.3 hPa | 0 mm | - | 735 W/m² | - |
| 1777905958 | 18.33° C | 47% | 1013.3 hPa | 0 mm | - | 666 W/m² | - |
* Rain latest hour (hover to see other rain measurements)
** Current wind speed in m/s (hover to see current wind gust speed)